(171228) = 2005 JO153

Discovered at Catalina on 2005-05-04 by CSS.

Orbit

Orbit type: Phocaea

Note: WebGL enabled browser required.

epoch2023-02-25.0
epoch JD2460000.5
perihelion date2022-06-15.09179
perihelion JD2459745.59179
argument of perihelion (°)49.24086
ascending node (°)51.90846
inclination (°)23.89738
eccentricity0.2229009
perihelion distance (AU)1.8255495
Tisserand w.r.t. Jupiter3.4
ΔV w.r.t. Earth (km/sec)11.1
semimajor axis (AU)2.3491850
mean anomaly (°)69.77693
mean daily motion (°/day)0.27373350
aphelion distance (AU)2.873
period (years)3.6
P-vector [x]-0.14226089
P-vector [y]0.74135504
P-vector [z]0.65586168
Q-vector [x]-0.93707685
Q-vector [y]-0.31429486
Q-vector [z]0.15200566
absolute magnitude16.24
phase slope0.15
uncertainty0
referenceMPO 745323
observations used697
oppositions11
arc length (days)9739
first opposition used1996
last opposition used2023
residual rms (arc-secs)0.76
perturbers coarse indicatorM-v
perturbers precise indicator003Ek
first observation date used1996-10-09.0
last observation date used2023-06-10.0
computer nameMPCLINUX
JD of orbit computation2456966.774634
perihelion JD uncertainty (days)1.0717E-04
argument of perihelion uncertainty (°)3.7898E-05
ascending node uncertainty (°)1.6011E-05
inclination uncertainty (°)1.0518E-05
eccentricity uncertainty 6.2912E-08
perihelion distance uncertainty (AU)1.5057E-07
Minimum Orbit Intersection Distances (in AU)
for orbit epoch: 2460000.5, reference: E2023-L52
Mercury1.52216
Venus1.14557
Earth0.89995
Mars0.40643
Jupiter2.59289
Saturn7.18054
Uranus16.2122
Neptune27.6183

Observations

712 total observations over interval: 1996 10 09.83005 – 2023 06 10.260253
These data are available for download (format description).

Date (UT) J2000 RA J2000 Dec Magn Location Ref
1996 10 09.83005 03 05 03.11 +00 23 49.4   327 – Peking Observatory, Xinglong Station MPS 138481
1996 10 09.84028 03 05 02.58 +00 23 52.7 18.5 V 327 – Peking Observatory, Xinglong Station MPS 138481
1996 10 09.85272 03 05 01.91 +00 23 56.0   327 – Peking Observatory, Xinglong Station MPS 138481
2001 01 02.40307 11 15 51.71 +48 31 27.2 18.6 R 699 – Lowell Observatory-LONEOS MPS 138481
2001 01 02.42821 11 15 53.01 +48 31 50.4   699 – Lowell Observatory-LONEOS MPS 138481
2001 01 02.45340 11 15 54.40 +48 32 12.6   699 – Lowell Observatory-LONEOS MPS 138481
2001 01 02.47863 11 15 55.70 +48 32 36.1   699 – Lowell Observatory-LONEOS MPS 138481
2001 03 26.14028 10 12 22.10 +51 04 16.5 19.1 R 699 – Lowell Observatory-LONEOS MPS 138481
2001 03 26.17265 10 12 21.37 +51 03 42.3   699 – Lowell Observatory-LONEOS MPS 138481
2001 03 26.20504 10 12 20.24 +51 03 07.9   699 – Lowell Observatory-LONEOS MPS 138481
2001 03 26.23744 10 12 19.38 +51 02 33.1   699 – Lowell Observatory-LONEOS MPS 138481
2005 04 04.40085 14 46 41.98 +01 13 44.6 18.8 R 703 – Catalina Sky Survey MPS 138481
2005 04 04.40890 14 46 41.48 +01 13 44.5 19.1 R 703 – Catalina Sky Survey MPS 138481
2005 04 04.41694 14 46 40.90 +01 13 43.4 18.9 R 703 – Catalina Sky Survey MPS 138481
2005 04 04.42500 14 46 40.40 +01 13 44.1 18.7 R 703 – Catalina Sky Survey MPS 138481
2005 04 12.34935 14 37 29.66 +00 58 56.8 18.6 R 699 – Lowell Observatory-LONEOS MPS 138481
2005 04 12.36396 14 37 28.45 +00 58 55.0   699 – Lowell Observatory-LONEOS MPS 138481
2005 04 12.37857 14 37 27.39 +00 58 52.0   699 – Lowell Observatory-LONEOS MPS 138481
2005 04 12.39318 14 37 26.34 +00 58 51.2   699 – Lowell Observatory-LONEOS MPS 138481
2005 04 18.37817 14 29 48.31 +00 42 54.0 19.4   704 – Lincoln Laboratory ETS, New Mexico MPS 138481
2005 04 18.38724 14 29 47.45 +00 42 52.5 19.6   704 – Lincoln Laboratory ETS, New Mexico MPS 138481
2005 04 18.39626 14 29 46.75 +00 42 48.6 19.5   704 – Lincoln Laboratory ETS, New Mexico MPS 138481
2005 04 18.40527 14 29 46.07 +00 42 47.9 19.2   704 – Lincoln Laboratory ETS, New Mexico MPS 138481
2005 05 04.28966 14 09 01.65 -00 23 00.9 19.3 V 703 – Catalina Sky Survey MPS 135415
2005 05 04.29801 14 09 01.04 -00 23 03.4 18.8 V 703 – Catalina Sky Survey MPS 135415
2005 05 04.30634 14 09 00.36 -00 23 06.3 19.6 V 703 – Catalina Sky Survey MPS 135415
2005 05 04.31469 14 08 59.71 -00 23 09.3 18.9 V 703 – Catalina Sky Survey MPS 135415
2005 05 10.36601 14 01 45.41 -00 57 18.0 19.1 V 291 – LPL/Spacewatch II MPS 135415
2005 05 10.37316 14 01 44.90 -00 57 20.7 19.3 V 291 – LPL/Spacewatch II MPS 135415
2005 05 10.38176 14 01 44.31 -00 57 23.7 19.3 V 291 – LPL/Spacewatch II MPS 135415
2005 05 11.27769 14 00 43.79 -01 02 51.6 18.9 V 291 – LPL/Spacewatch II MPS 135415
2005 05 11.28432 14 00 43.44 -01 02 53.5 18.6 V 291 – LPL/Spacewatch II MPS 135415
2005 05 11.28841 14 00 43.09 -01 02 55.4 19.2 V 291 – LPL/Spacewatch II MPS 135415
2005 05 12.27861 13 59 37.30 -01 09 04.5 19.6 V 291 – LPL/Spacewatch II MPS 135415
2005 05 12.28277 13 59 37.01 -01 09 06.2 19.6 V 291 – LPL/Spacewatch II MPS 135415
2005 05 12.28679 13 59 36.74 -01 09 07.5 19.7 V 291 – LPL/Spacewatch II MPS 135415
2007 09 13.40335 05 07 42.77 +20 10 54.3 20.4   704 – Lincoln Laboratory ETS, New Mexico MPS 216242
2007 09 13.41520 05 07 43.78 +20 11 02.0 19.9   704 – Lincoln Laboratory ETS, New Mexico MPS 216242
2007 09 13.42695 05 07 44.79 +20 11 11.0 20.4   704 – Lincoln Laboratory ETS, New Mexico MPS 216242
2007 09 13.43869 05 07 45.77 +20 11 19.1 20.5   704 – Lincoln Laboratory ETS, New Mexico MPS 216242
2007 09 13.45042 05 07 46.87 +20 11 27.9 20.7   704 – Lincoln Laboratory ETS, New Mexico MPS 216242
2007 09 16.42317 05 12 00.95 +20 46 45.3 20.5   704 – Lincoln Laboratory ETS, New Mexico MPS 216242
2007 09 16.44702 05 12 02.90 +20 47 03.9 20.2   704 – Lincoln Laboratory ETS, New Mexico MPS 216242
2007 09 16.45891 05 12 03.82 +20 47 12.6 20.1   704 – Lincoln Laboratory ETS, New Mexico MPS 216242
2007 09 18.49310 05 14 53.73 +21 11 52.5 19.0 V G96 – Mt. Lemmon Survey MPS 216242
2007 09 18.49558 05 14 53.95 +21 11 54.4 18.9 V G96 – Mt. Lemmon Survey MPS 216242
2007 09 18.49814 05 14 54.13 +21 11 56.1 18.9 V G96 – Mt. Lemmon Survey MPS 216242
2007 09 18.50061 05 14 54.34 +21 11 57.9 19.3 V G96 – Mt. Lemmon Survey MPS 216242
2007 09 19.37015 05 16 06.19 +21 22 40.1 20.1   704 – Lincoln Laboratory ETS, New Mexico MPS 216242
2007 09 19.38214 05 16 07.20 +21 22 48.4 19.9   704 – Lincoln Laboratory ETS, New Mexico MPS 216242
2007 09 19.39415 05 16 08.24 +21 22 57.1 20.6   704 – Lincoln Laboratory ETS, New Mexico MPS 216242
2007 09 19.40612 05 16 09.16 +21 23 05.7 19.8   704 – Lincoln Laboratory ETS, New Mexico MPS 216242
2007 10 06.36539 05 37 05.11 +25 13 18.7 19.6   704 – Lincoln Laboratory ETS, New Mexico MPS 218683
2007 10 06.37636 05 37 05.79 +25 13 28.5 19.8   704 – Lincoln Laboratory ETS, New Mexico MPS 218683
2007 10 06.38735 05 37 06.46 +25 13 38.4 20.2   704 – Lincoln Laboratory ETS, New Mexico MPS 218683
2007 10 06.39834 05 37 07.17 +25 13 48.1 19.9   704 – Lincoln Laboratory ETS, New Mexico MPS 218683
2007 10 06.40933 05 37 07.87 +25 13 57.4 20.1   704 – Lincoln Laboratory ETS, New Mexico MPS 218683
2007 10 08.36801 05 39 11.64 +25 43 47.4 19.3   704 – Lincoln Laboratory ETS, New Mexico MPS 218683
2007 10 08.37919 05 39 12.29 +25 43 58.1 20.2   704 – Lincoln Laboratory ETS, New Mexico MPS 218683
2007 10 08.40164 05 39 13.70 +25 44 19.6 19.7   704 – Lincoln Laboratory ETS, New Mexico MPS 218683
2007 10 08.41284 05 39 14.35 +25 44 29.9 19.8   704 – Lincoln Laboratory ETS, New Mexico MPS 218683
2007 10 11.37903 05 42 11.19 +26 31 14.1 19.5   704 – Lincoln Laboratory ETS, New Mexico MPS 220563
2007 10 11.39022 05 42 11.87 +26 31 25.0 19.3   704 – Lincoln Laboratory ETS, New Mexico MPS 220563
2007 10 11.40147 05 42 12.48 +26 31 35.7 19.5   704 – Lincoln Laboratory ETS, New Mexico MPS 220563
2007 10 11.41268 05 42 13.04 +26 31 46.5 19.7   704 – Lincoln Laboratory ETS, New Mexico MPS 220563
2007 10 12.36660 05 43 07.27 +26 47 13.5 19.3   704 – Lincoln Laboratory ETS, New Mexico MPS 220563
2007 10 12.37784 05 43 07.93 +26 47 25.3 19.4   704 – Lincoln Laboratory ETS, New Mexico MPS 220563
2007 10 12.38908 05 43 08.50 +26 47 35.3 19.4   704 – Lincoln Laboratory ETS, New Mexico MPS 220563
2007 10 12.40033 05 43 09.10 +26 47 46.4 19.6   704 – Lincoln Laboratory ETS, New Mexico MPS 220563
2007 10 12.41156 05 43 09.69 +26 47 57.1 19.7   704 – Lincoln Laboratory ETS, New Mexico MPS 220563
2007 10 15.36766 05 45 47.78 +27 37 12.8 19.1   704 – Lincoln Laboratory ETS, New Mexico MPS 220563
2007 10 15.37921 05 45 48.34 +27 37 24.7 19.2   704 – Lincoln Laboratory ETS, New Mexico MPS 220563
2007 10 15.39062 05 45 48.92 +27 37 36.7 19.4   704 – Lincoln Laboratory ETS, New Mexico MPS 220563
2007 10 15.40204 05 45 49.44 +27 37 48.3 19.6   704 – Lincoln Laboratory ETS, New Mexico MPS 220563
2007 10 15.41345 05 45 50.03 +27 38 00.6 19.6   704 – Lincoln Laboratory ETS, New Mexico MPS 220563
2007 10 24.36835 05 52 13.28 +30 20 21.6 19.1   704 – Lincoln Laboratory ETS, New Mexico MPS 223470
2007 10 24.38014 05 52 13.68 +30 20 34.8 19.3   704 – Lincoln Laboratory ETS, New Mexico MPS 223470
2007 10 24.39193 05 52 14.01 +30 20 50.0 19.4   704 – Lincoln Laboratory ETS, New Mexico MPS 223470
2007 10 24.40381 05 52 14.16 +30 21 08.5 19.3   704 – Lincoln Laboratory ETS, New Mexico MPS 223470
2007 11 02.42171 05 55 46.02 +33 25 59.9 19.2   704 – Lincoln Laboratory ETS, New Mexico MPS 224907
2007 11 02.43345 05 55 46.10 +33 26 16.7 19.0   704 – Lincoln Laboratory ETS, New Mexico MPS 224907
2007 11 02.44522 05 55 46.22 +33 26 32.1 18.7   704 – Lincoln Laboratory ETS, New Mexico MPS 224907
2007 11 02.45712 05 55 46.31 +33 26 47.7 18.6   704 – Lincoln Laboratory ETS, New Mexico MPS 224907
2007 11 02.46887 05 55 46.41 +33 27 02.5 18.3   704 – Lincoln Laboratory ETS, New Mexico MPS 224907
2007 11 05.96752 05 56 12.55 +34 44 24.0 17.1 R 152 – Moletai Astronomical Observatory MPS 250369
2007 11 08.33647 05 56 10.07 +35 38 27.5 18.9   704 – Lincoln Laboratory ETS, New Mexico MPS 224907
2007 11 08.34872 05 56 10.03 +35 38 44.4 19.0   704 – Lincoln Laboratory ETS, New Mexico MPS 224907
